Location: Newark
(53.5596°N, 1.2370°W)
Time: 16:52:58
(UTC+00:00)

KKS-1 - Visible Passes

Search period start: 14 December 2019 00:00
Search period end: 24 December 2019 00:00
Orbit: 637 x 650 km, 98.3° (Epoch: 14 December)

Date Brightness Start Highest point End Pass type
(mag) Time Alt. Az. Time Alt. Az. Time Alt. Az.
14 Dec ? 05:48:33 10° SE 05:52:37 37° ENE 05:56:44 10° N visible
14 Dec ? 07:25:12 10° SSW 07:29:13 33° W 07:33:16 10° NNW visible
15 Dec ? 04:39:48 10° ENE 04:41:22 12° NE 04:42:56 10° NNE visible
15 Dec ? 06:12:41 10° SSE 06:17:02 59° ENE 06:21:26 10° N visible
16 Dec ? 05:02:42 10° E 05:05:34 17° NE 05:08:26 10° NNE visible
16 Dec ? 06:37:06 10° SSE 06:41:31 87° WSW 06:46:01 10° NNW visible
17 Dec ? 05:26:12 10° ESE 05:29:49 25° ENE 05:33:27 10° N visible
17 Dec ? 07:01:46 10° S 07:06:06 53° W 07:10:29 10° NNW visible
18 Dec ? 05:50:04 10° SE 05:54:09 38° ENE 05:58:17 10° N visible
18 Dec ? 07:26:45 10° SSW 07:30:45 33° W 07:34:48 10° NNW visible
19 Dec ? 04:41:15 10° ENE 04:42:54 12° NE 04:44:33 10° NNE visible
19 Dec ? 06:14:13 10° SSE 06:18:34 60° ENE 06:22:58 10° N visible
20 Dec ? 05:04:11 10° E 05:07:05 17° NE 05:10:00 10° NNE visible
20 Dec ? 06:38:37 10° SSE 06:43:04 85° WSW 06:47:33 10° NNW visible
21 Dec ? 05:27:42 10° ESE 05:31:21 25° ENE 05:35:00 10° N visible
21 Dec ? 07:03:18 10° S 07:07:38 52° W 07:12:01 10° NNW visible
22 Dec ? 05:51:35 10° SE 05:55:41 38° ENE 05:59:50 10° N visible
22 Dec ? 07:28:18 10° SSW 07:32:17 32° W 07:36:19 10° NNW visible
23 Dec ? 04:42:41 10° ENE 04:44:24 12° NE 04:46:09 10° NNE visible
23 Dec ? 06:15:44 10° SSE 06:20:05 61° ENE 06:24:31 10° N visible
